Regional Weather Roundup
Issued by NWS

Home | Current Version | Previous Version | Text Only | Print | Product List | Glossary On
Versions: 1 2 3 4 5 6 7 8 9 10 11 12 13 14 15 16 17 18 19 20 21 22 23 24 25 26 27 28 29 30 31 32 33 34 35 36 37 38 39 40 41 42 43 44 45 46 47 48 49 50
658
ASUS44 KMEG 080210
RWRTN
TENNESSEE HOURLY STATE WEATHER ROUNDUP
NATIONAL WEATHER SERVICE MEMPHIS TN
800 PM CST WED DEC 07 2016

TNZ002-004-019-021-049-052-054-088>092-080300-
WEST TENNESSEE

CITY           SKY/WX    TMP DP  RH WIND       PRES   REMARKS
MEMPHIS INTL   CLOUDY    43  33  68 N5        30.23R
NWS MEMPHIS      N/A     42 N/A N/A MISG        N/A
JACKSON        CLOUDY    41  32  70 N6        30.22S
DYERSBURG      CLOUDY    41  27  56 N9        30.23S
UNION CITY     MOCLDY    39  28  65 N9        30.22S WCI  33
PARIS          CLOUDY    37  25  60 CALM      30.21S
HUNTINGDON     CLOUDY    41  28  60 CALM      30.21R
LEXINGTON      MOCLDY    39  28  65 CALM      30.18F
$$

TNZ008-025-027-028-033-062-065-066-080300-
NORTH MIDDLE TENNESSEE

CITY           SKY/WX    TMP DP  RH WIND       PRES   REMARKS
NASHVILLE      CLOUDY    42  27  55 NW9       30.20R
PORTLAND       MOCLDY    37  27  65 N9        30.19S WCI  31
CLARKSVILLE    CLOUDY    40  24  53 N9        30.21S WCI  34
SMYRNA         PTCLDY    38  31  76 NW5       30.20S WCI  34
GALLATIN       PTCLDY    39  27  60 NW6       30.22S WCI  35
CROSSVILLE     CLOUDY    39  32  76 NW8       30.12S WCI  33
$$

TNZ061-075-076-078-094-096-097-080300-
SOUTH MIDDLE TENNESSEE

CITY           SKY/WX    TMP DP  RH WIND       PRES   REMARKS
FAYETTEVILLE   CLOUDY    39  36  87 CALM      30.18S
TULLAHOMA      MOCLDY    34  32  93 CALM      30.18R
WINCHESTER     CLOUDY    39  36  87 NW5       30.17R
MCMINNVILLE    MOCLDY    37  36  93 CALM        N/A
COLUMBIA       CLEAR     37  37 100 CALM      30.18S
SHELBYVILLE    CLEAR     36  36 100 CALM      30.20R
$$

TNZ017-018-042-046-047-080300-
NORTHEAST TENNESSEE

CITY           SKY/WX    TMP DP  RH WIND       PRES   REMARKS
TRI CITIES     CLOUDY    40  33  76 N5        30.07S
ELIZABETHTON   DRIZZLE   43  39  87 CALM      30.06F
$$

TNZ012-013-036-069-073-074-080300-
CENTRAL EAST TENNESSEE

CITY           SKY/WX    TMP DP  RH WIND       PRES   REMARKS
KNOXVILLE      CLOUDY    43  35  73 NW5       30.09R
OAK RIDGE      PTCLDY    41  35  79 CALM      30.13R
DOWNTOWN KNOXV CLOUDY    45  36  70 CALM      30.11S
GATLINBURG     PTCLDY    43  36  75 NW3       30.08R
MORRISTOWN     CLOUDY    45  37  76 CALM      30.07R
JACKSBORO      CLOUDY    41  32  70 CALM      30.14S
$$

TNZ083-085-099-080300-
SOUTHEAST TENNESSEE

CITY           SKY/WX    TMP DP  RH WIND       PRES   REMARKS
CHATTANOOGA    MOCLDY    46  36  68 W10       30.14R
$$

SKY/WX REPORTED AS FAIR MEANS FEW OR NO CLOUDS BELOW
12 THOUSAND FEET.





USA.gov is the U.S. government's official web portal to all federal, state and local government web resources and services.